Location: Saluda
(35.2377°N, 82.3468°W)
Time: 06:21:29
(UTC+00:00)

Vanguard 2 - Pass Details

Date: 05 October 2022
Orbit: 553 x 2933 km, 32.9° (Epoch: 26 November)

Event Time Altitude Azimuth Distance (km) Brightness Sun altitude
Rises 21:40:43 0° 279° (W) 5,567 13.1 16.5°
Reaches altitude 10° 21:43:57 10° 277° (W) 4,823 13.0 15.9°
Maximum altitude 21:58:46 70° 198° (SSW) 2,953 10.9 13.0°
Drops below altitude 10° 22:16:32 10° 119° (ESE) 5,643 11.5 9.5°
Sets 22:20:40 0° 118° (ESE) 6,519 11.8 8.6°
